[[{"header":{"parameterUnit":"m.s-1","parameterCategory":1,"la1":30.2991,"la2":30.254,"lo1":-89.0895,"lo2":-89.0444,"dy":0.0017,"dx":0.0017,"nx":28,"ny":28,"refTime":"2025-08-06T03:00:00:Z","depth":0,"parameterNumber":2,"parameterNumberName":"U-component_of_WINDS"},"data":[0,0,0,0,0,0,0,0,0,0,0,0,0,0,0,0,0,0,0,0,0,0,0,0,0,0,0,0,0,0,0,0,0,0,0,0,0,0,0,0,0,0,0,0,0,0,0,0,0,0,0,0,0,0,0,0,0,0,-1.3171,-1.317,0,-1.3051,-1.3049,-1.3048,-1.2973,-1.2973,-1.2972,-1.2972,-1.2848,-1.2845,-1.2842,0,0,0,0,0,0,0,0,0,0,0,0,0,-1.3338,-1.3335,-1.3171,-1.317,-1.3168,-1.3051,-1.3049,-1.3047,-1.2973,-1.2973,-1.2972,-1.2972,-1.2849,-1.2846,-1.2842,0,0,0,0,0,0,0,0,0,0,0,0,0,-1.3246,-1.3335,-1.3171,-1.3117,-1.3111,-1.3051,-1.3049,-1.3047,-1.2973,-1.2973,-1.2972,-1.2971,-1.285,-1.2846,-1.2842,-1.2827,0,0,-1.2828,-1.2826,0,0,0,0,0,0,0,0,-1.3252,-1.324,-1.3126,-1.3121,-1.3114,-1.3026,-1.3062,-1.2973,-1.2973,-1.3025,-1.2972,-1.2971,-1.2908,-1.2899,-1.2877,-1.2821,-1.2816,-1.2828,-1.2825,-1.2823,-1.2822,0,0,0,0,0,0,0,-1.3258,-1.3245,-1.3123,-1.3125,-1.3117,-1.3099,-1.3085,-1.3045,-1.2971,-1.3021,-1.3015,-1.3002,-1.2904,-1.2882,-1.2874,-1.2814,-1.2828,-1.2824,-1.2821,-1.282,-1.2741,-1.2741,0,0,0,0,0,0,-1.3273,-1.3251,-1.3127,-1.312,-1.3183,-1.3096,-1.3081,-1.3055,-1.2972,-1.2958,-1.3003,-1.2999,-1.289,-1.2879,-1.2869,-1.2847,-1.2823,-1.2819,-1.2817,-1.274,-1.2741,-1.2741,0,0,0,0,0,0,-1.3277,-1.3263,-1.3132,-1.3184,-1.3166,-1.3094,-1.3065,-1.3053,-1.303,-1.2958,-1.2944,-1.2993,-1.2889,-1.2875,-1.2838,-1.2842,-1.2817,-1.2813,-1.2739,-1.274,-1.2741,-1.2802,0,0,0,0,0,0,-1.3282,-1.3265,-1.3258,-1.3184,-1.3163,-1.3103,-1.3065,-1.3051,-1.3023,-1.3017,-1.2945,-1.2933,-1.2887,-1.2845,-1.2834,-1.2835,-1.281,-1.2739,-1.274,-1.2741,-1.28,-1.2805,-1.281,0,0,0,0,0,-1.3288,-1.3279,-1.3258,-1.3243,-1.3153,-1.3103,-1.3091,-1.3039,-1.3023,-1.3016,-1.297,-1.2935,-1.2843,-1.2842,-1.2829,-1.2829,-1.2738,-1.274,-1.2741,-1.2797,-1.2804,-1.281,0,0,0,0,0,0,-1.3355,-1.3269,-1.3244,-1.3211,-1.3165,-1.3091,-1.308,-1.3047,-1.3005,-1.3001,-1.2938,-1.2922,-1.2891,-1.2856,-1.2856,-1.2811,-1.2787,-1.2786,-1.2835,-1.284,-1.2845,-1.2854,-1.2806,0,0,0,0,0,-1.3366,-1.3332,-1.3259,-1.3237,-1.3215,-1.3152,-1.3128,-1.3092,-1.3042,-1.3022,-1.2973,-1.2926,-1.2886,-1.2861,-1.2821,-1.2795,-1.2778,-1.2788,-1.2793,-1.2798,-1.2797,-1.2782,-1.2786,-1.2745,-1.2745,-1.2745,0,0,-1.3388,-1.3337,-1.3319,-1.3249,-1.3209,-1.3176,-1.3136,-1.3102,-1.3077,-1.3016,-1.2978,-1.2941,-1.2884,-1.2853,-1.2837,-1.2823,-1.2805,-1.2799,-1.2804,-1.28,-1.2784,-1.2788,-1.2791,-1.2746,-1.2746,-1.2746,0,0,-1.3411,-1.3369,-1.3346,-1.3308,-1.3248,-1.3206,-1.3201,-1.3132,-1.3105,-1.3066,-1.302,-1.299,-1.2923,-1.2885,-1.2857,-1.2868,-1.2835,-1.2857,-1.2883,-1.2869,-1.2872,-1.2875,-1.288,-1.2882,-1.2857,-1.2857,-1.2857,0,-1.3446,-1.3394,-1.3339,-1.3308,-1.328,-1.3224,-1.3201,-1.3166,-1.3097,-1.3078,-1.3064,-1.298,-1.2938,-1.2897,-1.29,-1.2879,-1.2872,-1.2864,-1.2876,-1.2878,-1.288,-1.2884,-1.2886,-1.286,-1.286,-1.2859,-1.2859,0,-1.344,-1.3405,-1.3394,-1.333,-1.3299,-1.3273,-1.3215,-1.3191,-1.3158,-1.3118,-1.308,-1.3028,-1.2976,-1.2964,-1.2931,-1.2919,-1.2913,-1.2888,-1.2863,-1.2888,-1.289,-1.2891,-1.2864,-1.2863,-1.2862,-1.2862,0,0,-1.35,-1.3407,-1.3404,-1.3374,-1.3306,-1.3278,-1.325,-1.32,-1.3181,-1.3135,-1.3111,-1.3056,-1.3034,-1.3002,-1.2965,-1.2952,-1.2966,-1.2929,-1.2927,-1.2938,-1.2951,-1.297,-1.2972,-1.2944,-1.2944,-1.2944,-1.2956,0,-1.3514,-1.346,-1.3411,-1.3375,-1.3343,-1.3291,-1.3266,-1.3222,-1.3184,-1.3152,-1.311,-1.3073,-1.3046,-1.3027,-1.3012,-1.2967,-1.2968,-1.2966,-1.292,-1.292,-1.2936,-1.2973,-1.2993,-1.3007,-1.2956,-1.2957,-1.2957,0,-1.3522,-1.348,-1.3441,-1.3377,-1.3362,-1.3341,-1.3292,-1.3261,-1.321,-1.3184,-1.315,-1.3111,-1.3079,-1.3058,-1.3015,-1.3015,-1.2993,-1.2969,-1.2968,-1.2962,-1.294,-1.2969,-1.301,-1.3012,-1.2958,-1.2957,-1.2957,0,-1.3571,-1.3504,-1.3473,-1.3449,-1.3373,-1.336,-1.3328,-1.3276,-1.325,-1.3208,-1.319,-1.3145,-1.312,-1.3086,-1.3036,-1.3025,-1.2998,-1.2973,-1.2976,-1.2977,-1.2972,-1.2973,-1.3011,-1.2959,-1.2959,-1.2959,-1.2959,0,-1.3591,-1.3569,-1.3494,-1.3475,-1.345,-1.3394,-1.337,-1.3334,-1.3289,-1.3262,-1.3214,-1.319,-1.3126,-1.3094,-1.3055,-1.3025,-1.3014,-1.2993,-1.2983,-1.2997,-1.3,-1.2982,-1.298,-1.2959,-1.2959,-1.2959,-1.2959,0,-1.3641,-1.3589,-1.3552,-1.3484,-1.3466,-1.3451,-1.3393,-1.3372,-1.3333,-1.33,-1.3289,-1.3227,-1.3187,-1.3135,-1.3078,-1.3052,-1.3028,-1.3012,-1.3045,-1.3039,-1.3046,-1.3046,-1.3073,-1.3074,-1.3022,-1.3023,-1.3023,0,-1.3657,-1.3639,-1.357,-1.3549,-1.3518,-1.3485,-1.3458,-1.3403,-1.3377,-1.3319,-1.3306,-1.3263,-1.3226,-1.3166,-1.3116,-1.3073,-1.3056,-1.3068,-1.3049,-1.3065,-1.3057,-1.3058,-1.3057,-1.3073,-1.3074,-1.3075,-1.3075,0,-1.3691,-1.3667,-1.3631,-1.3586,-1.3556,-1.3518,-1.3477,-1.3463,-1.3399,-1.3373,-1.3332,-1.3304,-1.3247,-1.3206,-1.3157,-1.3124,-1.3089,-1.3082,-1.3081,-1.3095,-1.3116,-1.3105,-1.3059,-1.3081,-1.3081,-1.308,-1.308,-1.308,-1.3725,-1.3708,-1.3657,-1.3618,-1.3582,-1.3546,-1.3524,-1.3483,-1.3448,-1.3398,-1.3367,-1.3328,-1.3279,-1.321,-1.3179,-1.3148,-1.3135,-1.3133,-1.3132,-1.3132,-1.3138,-1.3121,-1.3139,-1.3139,-1.3139,-1.3139,-1.3138,0,-1.3758,-1.3723,-1.3688,-1.3633,-1.3604,-1.3574,-1.3529,-1.3506,-1.3472,-1.3429,-1.3394,-1.3348,-1.3308,-1.3256,-1.3212,-1.3198,-1.3181,-1.3188,-1.3189,-1.3182,-1.3152,-1.3158,-1.3203,-1.3203,-1.3203,-1.3203,-1.3203,-1.3203,-1.3771,-1.374,-1.3711,-1.3662,-1.3627,-1.3589,-1.3566,-1.3533,-1.3498,-1.345,-1.3416,-1.3382,-1.3336,-1.3289,-1.3251,-1.3237,-1.3223,-1.3236,-1.3217,-1.319,-1.3184,-1.3178,-1.3184,-1.3233,-1.3233,-1.3249,-1.3249,-1.3249]},{"header":{"parameterUnit":"m.s-1","parameterCategory":1,"la1":30.2991,"la2":30.254,"lo1":-89.0895,"lo2":-89.0444,"dy":0.0017,"dx":0.0017,"nx":28,"ny":28,"refTime":"2025-08-06T03:00:00:Z","depth":0,"parameterNumber":3,"parameterNumberName":"V-component_of_WINDS"},"data":[0,0,0,0,0,0,0,0,0,0,0,0,0,0,0,0,0,0,0,0,0,0,0,0,0,0,0,0,0,0,0,0,0,0,0,0,0,0,0,0,0,0,0,0,0,0,0,0,0,0,0,0,0,0,0,0,0,0,0.1024,0.1024,0,0.0971,0.097,0.0969,0.0955,0.0955,0.0955,0.0956,0.09,0.0899,0.0897,0,0,0,0,0,0,0,0,0,0,0,0,0,0.1114,0.1112,0.1024,0.1024,0.1023,0.0971,0.097,0.0969,0.0955,0.0955,0.0955,0.0956,0.0901,0.0899,0.0897,0,0,0,0,0,0,0,0,0,0,0,0,0,0.1069,0.1112,0.1024,0.1009,0.1007,0.0971,0.097,0.0969,0.0955,0.0955,0.0956,0.0956,0.0902,0.0899,0.0897,0.0871,0,0,0.0888,0.0887,0,0,0,0,0,0,0,0,0.1071,0.1066,0.1012,0.101,0.1008,0.097,0.0981,0.0936,0.0954,0.0975,0.0956,0.0956,0.0923,0.0919,0.0908,0.0868,0.0866,0.0888,0.0887,0.0886,0.0885,0,0,0,0,0,0,0,0.1075,0.1068,0.1003,0.1011,0.1009,0.1005,0.0999,0.0973,0.0947,0.0973,0.0972,0.0966,0.0922,0.091,0.0906,0.0865,0.0888,0.0886,0.0884,0.0883,0.0801,0.0801,0,0,0,0,0,0,0.108,0.1071,0.1005,0.1001,0.1042,0.1003,0.0997,0.0982,0.0947,0.0942,0.0965,0.0965,0.0915,0.0909,0.0904,0.0871,0.0886,0.0883,0.0882,0.0802,0.0801,0.08,0,0,0,0,0,0,0.1082,0.1075,0.1007,0.1036,0.1027,0.1001,0.0984,0.098,0.0968,0.0941,0.0937,0.0958,0.0915,0.0908,0.0879,0.0869,0.0882,0.0879,0.0803,0.0802,0.0801,0.0805,0,0,0,0,0,0,0.1085,0.1075,0.1065,0.1035,0.1025,0.0983,0.0984,0.0979,0.0964,0.0963,0.0933,0.0929,0.0915,0.0883,0.0877,0.0866,0.0877,0.0803,0.0802,0.0801,0.0806,0.0805,0.0804,0,0,0,0,0,0.1088,0.1069,0.1065,0.1057,0.1012,0.0982,0.0976,0.0961,0.0963,0.0953,0.0935,0.093,0.0872,0.088,0.0873,0.0861,0.0804,0.0802,0.0801,0.0807,0.0805,0.0804,0,0,0,0,0,0,0.1099,0.1065,0.106,0.1031,0.1009,0.098,0.0966,0.096,0.0937,0.0937,0.0919,0.0912,0.0884,0.087,0.088,0.0834,0.0838,0.0835,0.0844,0.0843,0.0842,0.0845,0.0875,0,0,0,0,0,0.1098,0.1076,0.1048,0.1024,0.1014,0.0992,0.0978,0.0968,0.0945,0.0936,0.0917,0.0895,0.0871,0.0856,0.0833,0.0804,0.0797,0.0792,0.0791,0.079,0.0788,0.077,0.0768,0.0796,0.0796,0.0796,0,0,0.1095,0.1074,0.1061,0.1026,0.1008,0.0986,0.0985,0.0961,0.0945,0.0933,0.0904,0.0889,0.0863,0.0834,0.082,0.0821,0.0779,0.0789,0.0788,0.0786,0.0769,0.0766,0.0764,0.0795,0.0795,0.0795,0,0,0.1079,0.1061,0.1039,0.1021,0.0995,0.098,0.0975,0.0946,0.0936,0.0907,0.0897,0.0877,0.0837,0.0819,0.0805,0.0781,0.0775,0.0775,0.0768,0.0751,0.0749,0.0747,0.0738,0.0735,0.0772,0.0772,0.0772,0,0.1079,0.1045,0.1029,0.1006,0.099,0.0979,0.0956,0.094,0.0907,0.0896,0.0898,0.0848,0.083,0.0796,0.079,0.0779,0.0772,0.0777,0.0751,0.0749,0.0746,0.0737,0.0734,0.0772,0.0772,0.0772,0.0772,0,0.1046,0.1023,0.1009,0.0977,0.096,0.0937,0.0918,0.0902,0.0893,0.0879,0.0849,0.0827,0.0799,0.079,0.0782,0.0755,0.0756,0.0755,0.0758,0.0744,0.0735,0.0732,0.0772,0.0772,0.0772,0.0772,0,0,0.1035,0.0994,0.0989,0.0974,0.0944,0.0925,0.0902,0.0875,0.0861,0.0839,0.0819,0.0786,0.0784,0.0768,0.0757,0.0742,0.0724,0.0743,0.0742,0.0739,0.0692,0.0693,0.0689,0.072,0.0719,0.0719,0.0694,0,0.1014,0.0972,0.0956,0.0922,0.09,0.0888,0.0868,0.0847,0.0832,0.0811,0.0796,0.0772,0.0772,0.0762,0.0747,0.073,0.0714,0.0731,0.07,0.0699,0.0706,0.0684,0.0685,0.0662,0.069,0.069,0.0689,0,0.0984,0.0961,0.0924,0.0895,0.0886,0.0868,0.0841,0.0821,0.0797,0.0788,0.0769,0.0759,0.0734,0.074,0.0704,0.0716,0.0703,0.0692,0.0691,0.0687,0.0693,0.0678,0.0655,0.0651,0.0684,0.0684,0.0685,0,0.0978,0.0938,0.091,0.0898,0.0864,0.0852,0.0837,0.0814,0.0798,0.0775,0.0764,0.0739,0.0724,0.0705,0.0688,0.0694,0.0654,0.0658,0.0645,0.0645,0.0636,0.0637,0.0609,0.0629,0.0629,0.0629,0.063,0,0.0956,0.0933,0.0907,0.089,0.0864,0.0847,0.0822,0.0807,0.0786,0.0765,0.0754,0.0735,0.0715,0.0693,0.068,0.0653,0.0647,0.0638,0.0634,0.0638,0.0639,0.0628,0.0629,0.0629,0.0629,0.0629,0.0629,0,0.0944,0.0926,0.0895,0.0866,0.0858,0.084,0.0815,0.0798,0.0783,0.0757,0.075,0.0727,0.0701,0.0682,0.0649,0.064,0.061,0.0607,0.0618,0.0616,0.0603,0.0604,0.0567,0.0561,0.0586,0.0586,0.0586,0,0.0931,0.0913,0.0882,0.0867,0.0853,0.0829,0.0813,0.0796,0.0779,0.075,0.0736,0.071,0.0687,0.0646,0.0626,0.06,0.0596,0.0584,0.0592,0.0596,0.0594,0.0595,0.0593,0.0583,0.0583,0.0583,0.0583,0,0.0909,0.09,0.0877,0.0851,0.0832,0.081,0.0789,0.0778,0.0756,0.0738,0.0711,0.0694,0.0659,0.0633,0.0605,0.059,0.0582,0.0581,0.0576,0.0579,0.0585,0.0581,0.0614,0.0581,0.0581,0.0581,0.0581,0.0582,0.0895,0.0878,0.0853,0.0828,0.081,0.079,0.0772,0.0755,0.0732,0.0703,0.0694,0.0666,0.0641,0.0603,0.0588,0.0565,0.0566,0.0559,0.0558,0.0556,0.0556,0.059,0.056,0.056,0.056,0.056,0.056,0,0.0871,0.0855,0.0831,0.0801,0.0781,0.0776,0.0752,0.0736,0.0711,0.0689,0.0667,0.0636,0.0609,0.0587,0.056,0.0546,0.0542,0.054,0.054,0.0537,0.0557,0.0563,0.0544,0.0544,0.0544,0.0544,0.0544,0.0544,0.0856,0.0828,0.0816,0.0779,0.0762,0.0734,0.0721,0.0702,0.0684,0.065,0.0628,0.0614,0.0592,0.0563,0.0538,0.0533,0.0523,0.0521,0.0514,0.0533,0.0535,0.0537,0.0543,0.0519,0.0519,0.0495,0.0495,0.0495]}]]